TimeEST,TemperatureF,Dew PointF,Humidity,Sea Level PressureIn,VisibilityMPH,Wind Direction,Wind SpeedMPH,Gust SpeedMPH,PrecipitationIn,Events,Conditions,WindDirDegrees,DateUTC
12:53 AM,73.0,70.0,90,30.01,10.0,SE,4.6,-,N/A,,Clear,130,2013-02-08 05:53:00
1:53 AM,73.9,70.0,87,29.99,10.0,SSE,6.9,-,N/A,,Clear,150,2013-02-08 06:53:00
2:53 AM,73.9,70.0,87,29.97,10.0,South,9.2,-,N/A,,Clear,170,2013-02-08 07:53:00
3:53 AM,73.9,71.1,91,29.97,10.0,South,4.6,-,N/A,,Clear,190,2013-02-08 08:53:00
4:53 AM,73.9,71.1,91,29.96,10.0,SSW,8.1,-,N/A,,Clear,210,2013-02-08 09:53:00
5:53 AM,73.9,71.1,91,29.97,10.0,SW,8.1,-,N/A,,Clear,220,2013-02-08 10:53:00
6:53 AM,73.4,71.6,94,30.00,10.0,SW,6.9,-,N/A,,Clear,230,2013-02-08 11:53:00
7:53 AM,75.0,72.0,90,30.00,10.0,SW,6.9,-,N/A,,Clear,220,2013-02-08 12:53:00
8:53 AM,75.9,72.0,87,30.04,10.0,WSW,8.1,-,N/A,,Clear,240,2013-02-08 13:53:00
9:53 AM,77.0,72.0,84,30.05,10.0,SW,6.9,-,N/A,,Clear,220,2013-02-08 14:53:00
10:53 AM,77.0,72.0,84,30.06,10.0,SW,8.1,-,N/A,,Scattered Clouds,230,2013-02-08 15:53:00
11:02 AM,77.0,71.6,83,30.06,10.0,SW,6.9,-,N/A,,Mostly Cloudy,230,2013-02-08 16:02:00
11:51 AM,78.8,69.8,74,30.06,10.0,West,8.1,-,N/A,,Partly Cloudy,280,2013-02-08 16:51:00
11:53 AM,79.0,69.1,72,30.06,10.0,WNW,9.2,-,N/A,,Partly Cloudy,290,2013-02-08 16:53:00
12:53 PM,78.1,72.0,81,30.05,10.0,SW,8.1,-,N/A,,Partly Cloudy,230,2013-02-08 17:53:00
1:34 PM,78.8,71.6,78,30.03,10.0,SW,9.2,-,N/A,,Mostly Cloudy,230,2013-02-08 18:34:00
1:41 PM,78.8,71.6,78,30.03,10.0,SW,10.4,-,N/A,,Scattered Clouds,230,2013-02-08 18:41:00
1:50 PM,78.8,69.8,74,30.03,10.0,West,8.1,-,N/A,,Mostly Cloudy,270,2013-02-08 18:50:00
1:53 PM,79.0,70.0,74,30.03,10.0,WSW,8.1,-,N/A,,Mostly Cloudy,240,2013-02-08 18:53:00
2:53 PM,79.0,71.1,77,30.01,10.0,WSW,8.1,-,N/A,,Mostly Cloudy,240,2013-02-08 19:53:00
3:05 PM,78.8,69.8,74,30.01,10.0,West,8.1,-,N/A,,Scattered Clouds,280,2013-02-08 20:05:00
3:53 PM,79.0,70.0,74,30.00,10.0,West,10.4,-,N/A,,Clear,270,2013-02-08 20:53:00
4:53 PM,78.1,70.0,76,30.00,10.0,WNW,9.2,-,N/A,,Clear,290,2013-02-08 21:53:00
5:22 PM,77.0,69.8,78,30.01,10.0,WNW,9.2,-,N/A,,Mostly Cloudy,290,2013-02-08 22:22:00
5:53 PM,77.0,71.1,82,30.01,10.0,WNW,9.2,-,N/A,,Mostly Cloudy,290,2013-02-08 22:53:00
6:09 PM,77.0,71.6,83,30.01,10.0,WNW,9.2,-,N/A,,Scattered Clouds,290,2013-02-08 23:09:00
6:41 PM,75.2,71.6,89,30.02,10.0,WNW,5.8,-,N/A,,Mostly Cloudy,290,2013-02-08 23:41:00
6:53 PM,75.9,71.1,85,30.02,10.0,WNW,5.8,-,N/A,,Mostly Cloudy,290,2013-02-08 23:53:00
7:03 PM,75.2,71.6,89,30.02,10.0,WNW,6.9,-,N/A,,Scattered Clouds,290,2013-02-09 00:03:00
7:32 PM,75.2,71.6,89,30.03,10.0,NW,5.8,-,N/A,,Mostly Cloudy,320,2013-02-09 00:32:00
7:53 PM,75.0,72.0,90,30.04,10.0,NNW,6.9,-,N/A,,Mostly Cloudy,330,2013-02-09 00:53:00
8:49 PM,73.4,71.6,94,30.06,10.0,North,5.8,-,N/A,,Overcast,360,2013-02-09 01:49:00
8:53 PM,73.9,71.1,91,30.06,10.0,North,4.6,-,N/A,,Overcast,10,2013-02-09 01:53:00
9:53 PM,73.0,70.0,90,30.06,10.0,Calm,Calm,-,N/A,,Partly Cloudy,0,2013-02-09 02:53:00
10:53 PM,73.9,70.0,87,30.06,10.0,NNW,3.5,-,N/A,,Clear,330,2013-02-09 03:53:00
11:53 PM,72.0,69.1,91,30.07,10.0,NNW,6.9,-,N/A,,Clear,340,2013-02-09 04:53:00